| |
Missouri Department of Transportation

Social Media Facebook Twitter Flickr Blog YouTube RSS

Current AWOS Information

 
AWOS Home - General Info for all Airports
Current AWOS for all Airports - Current METAR for all Airports
Glossary - Disclaimer - Other Links


LEBANON--FLOYD W JONES LEBANON--KLBO
 
Recent AWOS History
 
09/23/14     05:12 AM CDT      10:12 GMT
Air Temperature 51°F (11°C ) 1st Cloud Layer Clear
Dew Point 47°F (8°C) 2nd Cloud Layer  
Barometric Pressure 30.27 in Hg. 3rd Cloud Layer  
Wind Speed 4 mph (4 knots) Density Altitude  
Peak Wind Gusts   Variable Wind Directions  
Wind Direction Quadrant(140°) Variable Visibility  
Visibility 10 statute miles  

Thunderstorm and Precipitation Identification: 
Thunderstorm Remarks: 

Current METAR Record: METAR KLBO 231015Z AUTO 15004KT 10SM CLR 10/08 A3027 RMK AO2

 

 

 

About Us
How Do I...
Contact Us
Missouri Department of Transportation
Central Office
105 W. Capitol Avenue
Jefferson City, MO 65102
1-888-ASK-MODOT (275-6636)
1-866-831-6277 (Motor Carrier Services)
Drivers License Offices
horz_bar
| | |
Missouri State Government
© 2013 Missouri Department of Transportation. All Rights Reserved.   Privacy Policy.
 
 
 
 
RSS FeedYoutubeBlogFlickrTwitter Facebook